Theta_e
317 318 316 313 310 311 311 311 311 313 312 312 312 311 312 313 314 313 315 316 317 317 319 321 321 321 320 318 317 320 324 332 343 347 344 343 346 346 344 342 339 340 340 339
317 319 317 315 313 313 313 312 312 314 314 313 313 312 312 313 312 314 314 315 317 317 319 321 321 322 321 320 318 318 322 328 340 346 346 344 345 345 344 341 339 341 341 340
317 318 318 318 317 316 312 312 312 314 315 314 313 313 313 314 314 315 315 316 317 317 318 320 322 322 322 320 319 318 320 323 336 347 346 344 344 345 344 342 340 340 342 342
315 315 316 319 319 317 317 314 314 315 316 314 313 312 313 313 314 313 315 315 317 318 321 322 323 323 322 321 319 318 318 327 331 344 344 345 344 344 344 344 341 342 341 340
316 315 316 317 318 318 317 317 316 316 316 314 316 313 313 314 315 314 315 317 319 323 324 323 323 323 321 320 320 319 319 321 330 343 345 345 344 345 343 341 340 337 340 337
316 316 316 316 317 319 319 319 319 318 316 316 316 313 312 314 315 317 317 318 326 336 333 324 322 321 321 326 326 328 331 336 337 342 343 345 343 342 338 340 339 339 337 339
320 317 316 318 318 318 319 320 324 321 317 318 314 313 313 315 316 318 320 323 329 332 341 339 330 331 331 338 340 338 342 342 343 343 341 341 339 339 340 340 340 340 340 337
322 320 318 319 319 319 320 322 322 325 317 318 314 314 313 320 321 321 321 326 329 336 338 342 342 336 333 337 342 343 341 340 340 341 341 340 341 341 342 341 341 339 332 329
323 322 320 319 319 320 319 321 318 315 324 319 315 318 324 325 323 323 326 330 333 336 337 336 335 336 339 343 343 343 345 343 342 340 340 341 341 340 340 339 338 334 333 335
321 324 321 321 319 319 320 317 318 320 321 323 322 329 329 326 325 322 324 325 334 333 335 334 334 333 333 330 331 333 335 335 338 340 338 337 338 338 337 337 337 337 336 336
321 321 322 320 321 320 319 320 319 316 316 320 324 326 326 325 323 323 322 324 332 330 331 334 333 332 331 332 330 333 334 335 336 336 336 335 334 333 333 333 332 331 330 329
321 321 322 321 321 321 320 319 317 316 319 318 321 326 326 322 321 322 322 324 326 329 329 332 332 332 331 331 330 330 330 331 332 331 331 332 332 332 332 331 330 329 328 328
321 321 323 321 322 320 322 322 318 315 317 321 321 323 324 323 321 321 321 323 324 325 324 326 329 329 330 330 329 329 329 329 328 328 327 325 324 322 321 323 326 326 324 325
321 319 321 321 322 321 323 323 319 318 317 321 320 329 325 326 325 321 320 323 323 321 321 321 321 322 322 322 322 320 320 319 319 319 318 317 316 315 315 314 315 315 315 315
322 322 321 322 324 324 325 325 325 320 319 322 324 328 325 325 326 323 321 322 322 319 319 319 318 317 317 317 318 317 317 317 317 316 316 316 314 314 313 313 313 312 312 312
318 323 321 322 321 323 325 325 326 326 324 325 326 327 323 323 323 323 322 323 320 318 317 317 317 317 317 317 317 315 315 314 313 314 314 313 313 312 312 312 311 311 311 311
319 318 322 323 322 322 324 322 324 326 325 325 326 325 322 322 321 322 322 322 321 319 319 318 318 318 317 316 315 314 314 313 313 313 312 312 312 312 311 311 311 310 310 310
319 319 317 323 321 324 320 319 323 324 324 324 324 323 321 320 320 320 321 321 321 320 318 317 316 315 315 314 314 313 313 313 312 312 311 311 310 309 308 307 306 305 304 304
316 318 317 322 321 322 321 322 324 324 321 319 321 317 316 316 316 314 318 319 318 317 316 315 314 314 313 313 313 313 312 311 311 310 309 308 308 307 306 305 305 304 303 303
316 317 316 317 321 324 321 320 319 319 322 318 317 316 316 317 318 314 316 316 315 315 314 314 313 313 313 313 312 312 311 309 308 307 307 306 305 305 305 304 304 304 303 302
316 313 316 315 320 322 321 320 318 320 322 317 316 316 317 317 315 314 314 314 314 314 313 313 312 311 310 309 308 307 307 306 305 305 304 304 304 304 303 303 303 302 302 301
314 312 312 314 316 322 317 318 317 316 314 316 315 315 314 314 314 313 313 313 312 312 311 311 311 310 308 307 306 306 305 305 304 304 304 303 302 301 300 300 300 300 300 300
315 312 313 313 314 314 314 313 312 313 312 314 315 314 314 313 311 311 309 308 307 307 307 306 306 306 305 305 305 305 304 303 303 302 300 299 298 298 298 298 298 298 299 301
314 313 316 316 317 313 309 311 311 312 311 311 314 314 313 308 307 306 306 306 306 305 305 304 304 304 304 304 303 303 302 301 300 298 297 297 297 297 297 298 299 299 300 300
311 312 316 317 315 309 305 306 307 307 308 308 308 308 307 307 306 306 305 305 304 304 304 303 303 302 302 301 301 300 300 299 297 297 297 297 297 298 298 298 298 298 298 297
310 312 314 317 313 310 305 304 307 307 305 305 305 304 304 305 304 303 303 303 302 302 301 301 301 301 300 299 299 298 297 296 296 296 297 297 297 297 297 298 299 297 298 298
Wind_Speed
11 6 13 8 8 4 6 6 7 1 7 9 9 7 9 14 15 16 27 29 31 33 27 22 20 21 27 26 22 23 26 28 31 38 33 30 28 30 31 30 27 27 24 23
4 18 10 8 10 13 13 14 17 3 3 3 5 10 10 9 10 19 26 31 36 33 30 25 28 27 27 27 24 23 26 26 33 35 37 33 32 30 31 28 28 28 27 25
12 6 15 12 13 13 12 17 10 4 4 6 4 9 7 11 13 28 29 33 36 35 36 27 27 28 29 28 27 23 24 25 33 39 39 36 32 31 30 30 29 27 23 23
11 13 14 15 19 11 14 6 7 4 2 4 3 6 6 8 13 9 24 24 34 29 23 21 17 23 28 28 25 19 17 24 30 36 40 38 35 33 32 28 24 26 26 27
9 11 17 20 14 14 9 4 5 5 6 4 7 2 8 3 8 7 8 22 18 16 19 23 21 20 23 17 13 16 18 23 32 34 36 35 32 32 23 28 27 25 32 31
10 11 13 23 15 14 12 11 4 6 1 3 16 10 6 4 7 1 2 10 15 19 19 19 17 14 13 10 7 8 13 17 22 26 26 33 27 25 24 27 29 33 29 31
4 11 5 8 13 13 11 5 1 3 4 11 5 6 9 5 5 3 4 14 20 23 25 26 24 22 20 19 17 15 17 18 20 20 22 24 23 23 22 23 22 21 27 26
9 5 15 9 9 6 12 10 4 5 5 11 3 7 3 7 10 5 3 23 22 30 32 29 26 25 23 21 18 15 13 13 14 15 17 19 22 20 20 21 21 20 18 19
4 6 2 8 11 14 5 18 14 1 2 2 3 3 2 12 10 10 20 24 13 27 35 36 32 27 22 16 11 7 9 10 9 9 10 13 14 15 16 19 22 22 23 28
6 2 4 4 5 11 15 8 5 4 4 2 3 2 0 6 8 7 14 6 24 29 34 34 32 30 26 21 15 10 8 6 4 8 7 5 7 9 12 16 17 19 22 22
3 2 2 3 4 10 7 6 3 5 4 5 3 0 2 1 5 6 7 11 16 29 32 35 36 32 29 26 23 21 17 16 16 14 13 9 7 8 8 7 10 7 7 6
11 3 5 11 2 4 10 8 14 5 5 3 4 2 1 3 6 12 11 15 24 33 34 37 36 34 32 28 25 23 22 19 18 17 16 15 13 13 11 11 12 11 8 7
7 3 4 2 2 7 5 5 4 4 3 6 5 4 5 4 11 17 12 14 19 33 34 34 35 33 31 29 26 24 22 21 18 16 14 14 12 10 9 7 4 3 4 4
5 4 4 7 2 6 9 9 6 7 4 5 5 8 6 6 10 9 12 17 19 26 33 33 34 33 31 28 25 24 22 19 17 13 11 9 7 5 4 3 2 1 1 2
2 7 5 4 2 1 4 8 7 5 7 6 9 11 15 17 16 8 9 13 19 19 27 30 31 30 28 26 22 18 16 12 9 7 6 4 2 1 2 3 4 4 5 7
2 4 6 6 2 5 4 1 5 2 7 6 11 5 7 14 20 23 12 12 19 20 22 26 26 23 20 19 17 12 11 8 5 4 3 1 2 3 6 7 10 12 14 16
2 4 6 6 7 5 8 11 6 4 1 11 5 7 14 16 15 24 24 16 13 18 20 19 20 17 13 11 8 7 7 7 8 7 6 6 8 10 13 14 17 20 21 23
3 3 2 5 8 5 3 7 8 6 5 8 11 16 13 16 20 20 27 29 29 30 27 18 14 10 7 5 4 7 7 7 7 8 10 13 14 16 18 19 22 23 23 23
4 2 3 3 2 7 10 2 5 16 3 4 16 13 18 25 27 13 25 28 28 23 19 15 13 9 8 6 3 4 2 4 8 10 12 14 17 19 21 23 24 24 25 25
4 5 3 2 3 3 3 6 12 6 2 5 19 18 20 22 7 2 24 26 23 18 15 15 13 10 8 8 7 4 3 5 6 7 10 14 18 21 24 25 26 28 30 32
3 2 4 3 2 4 3 4 2 4 4 2 23 28 25 10 12 27 24 22 19 17 14 12 10 9 7 6 5 6 4 7 8 10 13 17 21 25 28 29 31 33 34 34
3 3 2 1 3 1 8 3 3 5 13 23 19 21 22 29 32 24 22 21 19 18 14 10 7 5 5 4 5 8 11 14 16 20 24 27 30 33 35 36 36 35 34 30
3 2 4 3 2 6 14 20 27 29 27 29 29 27 31 30 26 25 22 20 18 14 11 7 4 3 3 6 11 14 17 20 24 28 31 33 34 33 31 29 26 23 19 17
3 2 4 2 7 8 19 27 30 32 33 30 28 26 24 26 23 21 17 12 8 5 3 2 5 8 11 14 17 19 22 26 30 33 33 31 28 23 19 17 16 14 12 11
0 4 4 7 10 20 19 27 31 31 30 30 26 22 21 19 16 12 9 6 4 4 6 8 10 13 15 18 21 23 27 31 32 29 25 19 15 13 12 10 10 9 7 8
3 6 4 3 6 16 8 21 24 25 24 23 24 22 17 12 14 10 7 5 5 8 10 13 15 18 21 23 26 28 28 26 21 16 13 11 10 10 10 9 6 6 6 4
Wind_Direction
189 193 216 196 209 250 296 278 248 192 247 197 240 257 253 258 256 250 255 259 268 264 264 256 250 255 259 259 243 212 214 213 216 212 209 208 211 215 217 219 222 224 229 232
199 228 203 210 199 214 239 261 262 291 259 215 278 271 259 247 249 243 247 252 258 257 258 254 253 253 257 259 248 218 211 219 217 217 213 217 216 221 222 224 224 231 233 236
210 194 197 208 221 214 218 223 240 218 314 280 291 290 286 271 245 248 248 252 257 254 254 255 251 249 248 253 249 230 215 220 220 215 213 216 222 221 221 228 229 232 236 250
230 220 245 216 219 209 235 205 224 227 252 236 129 280 282 276 256 220 232 239 251 249 249 233 230 229 234 241 250 236 226 210 222 219 214 220 224 227 234 240 255 248 255 257
219 199 219 240 239 224 246 209 228 212 233 264 254 290 261 331 265 240 213 229 246 217 213 212 217 223 227 230 222 209 209 215 222 221 223 224 231 235 249 258 257 265 256 257
216 224 206 230 233 233 234 269 335 349 126 250 243 198 279 232 223 202 19 230 189 159 166 167 160 157 162 132 147 180 200 210 207 214 220 227 228 242 259 263 262 268 256 265
302 255 233 216 220 228 212 143 123 226 194 234 205 181 226 289 269 174 209 159 149 147 144 140 142 144 142 146 152 163 186 189 202 210 223 231 239 249 258 260 261 270 261 280
198 239 200 193 196 184 206 187 178 161 199 231 198 224 234 285 266 140 131 145 137 126 129 132 139 144 146 154 161 175 184 196 215 226 236 243 248 254 258 265 268 278 284 282
226 235 214 192 210 189 225 184 200 197 19 134 213 250 184 5 6 102 108 113 113 116 118 113 110 110 118 145 146 171 196 206 209 215 246 258 269 269 272 274 280 273 283 282
215 213 218 195 189 201 208 154 204 198 205 182 260 90 48 346 329 350 94 75 131 121 119 116 112 109 107 107 107 107 107 126 173 216 239 261 281 297 298 294 291 285 283 279
135 152 183 39 210 188 188 186 125 156 172 179 165 10 274 261 351 38 61 98 129 124 121 119 116 113 111 109 106 103 98 95 94 93 89 81 82 62 58 53 58 57 50 34
177 175 210 211 261 272 199 184 180 172 216 211 148 177 139 106 50 50 33 89 121 123 121 122 120 121 118 115 112 111 110 109 106 104 104 97 94 94 92 92 92 86 67 57
155 216 133 125 39 278 196 192 164 152 131 186 125 190 210 109 56 47 40 73 101 122 126 125 125 124 123 123 122 119 115 116 111 110 109 105 102 101 89 83 73 44 50 49
155 216 194 189 177 173 196 192 172 162 137 177 171 142 194 171 93 57 69 85 100 119 130 128 122 119 121 122 121 120 118 119 121 121 113 101 93 83 79 76 75 37 358 318
217 215 168 106 114 64 207 190 152 169 172 162 173 163 181 170 139 120 94 108 101 106 126 124 122 121 118 118 113 113 108 106 103 104 103 97 72 356 322 300 304 311 305 303
55 274 153 169 325 103 21 301 144 176 116 85 130 67 131 141 126 141 196 112 111 116 124 123 122 121 115 108 107 98 85 69 43 46 51 58 308 300 301 307 310 309 309 309
218 233 137 175 161 130 216 236 194 149 177 136 148 166 147 149 151 165 167 186 144 144 142 146 132 125 114 98 77 50 38 24 11 17 19 357 331 323 320 319 317 315 313 313
241 131 89 122 112 212 272 201 190 122 65 98 103 138 143 149 157 167 163 166 173 171 166 142 133 123 102 66 25 12 2 347 348 344 338 337 331 328 327 325 324 322 319 317
256 133 104 132 180 146 82 148 172 157 69 341 121 121 114 119 111 83 146 158 157 151 141 133 128 135 139 144 174 219 261 326 325 325 324 319 318 317 319 320 322 321 320 319
78 72 72 78 84 97 180 83 97 110 21 343 141 135 132 131 122 152 136 141 140 145 145 152 163 173 170 164 184 208 254 276 293 300 306 310 312 315 316 317 316 316 316 315
77 22 89 25 74 68 12 325 108 82 202 137 145 140 139 127 141 147 141 141 145 156 166 174 173 176 155 163 206 246 258 291 310 312 311 310 310 309 308 307 307 307 307 307
114 106 107 287 86 4 12 322 160 149 100 118 121 130 112 129 143 147 147 143 153 158 153 161 176 175 174 215 271 295 304 309 308 308 307 306 303 301 299 299 300 301 302 303
46 155 130 95 193 321 56 94 102 106 98 110 114 116 127 133 135 138 136 138 138 139 141 144 162 182 251 283 292 298 305 306 306 306 305 305 305 303 303 304 304 303 304 304
81 27 91 90 25 42 68 97 108 118 116 122 131 138 141 130 134 132 133 130 134 142 161 245 283 292 293 294 298 303 307 310 310 309 311 310 309 309 311 312 312 314 318 322
329 27 98 83 102 79 67 104 114 114 120 121 124 128 128 133 129 141 150 164 195 245 266 282 293 298 302 303 305 309 311 309 308 310 312 314 319 325 328 333 332 331 333 331
353 152 129 159 114 109 119 122 127 122 119 122 126 120 119 131 139 149 166 198 243 267 279 288 294 297 297 299 302 304 305 306 308 313 319 330 338 341 344 345 354 356 3 353